"Time","Temp","Dewpoint","Humidity","Pressure","Direction","Speed","Gust","Precip","PrecipRate"
"00:04:57","71.3","70.7","98","30.02","204","1.2","3.5","0.00","0.00"
"00:09:57","71.3","70.7","98","30.02","193","1.8","4","0.00","0.00"
"00:14:56","71.3","70.7","98","30.02","184","1.6","3.5","0.00","0.00"
"00:19:59","71.3","70.7","98","30.02","183","1.5","3.5","0.00","0.00"
"00:24:58","71.3","70.7","98","30.02","183","1.5","3.5","0.00","0.00"
"00:29:57","71.3","70.7","98","30.02","183","1.5","3.5","0.00","0.00"
"00:34:56","71.3","70.7","98","30.01","183","1.4","3.5","0.00","0.00"
"00:39:56","71.3","70.7","98","30.01","183","0.2","2.3","0.00","0.00"
"00:44:58","71.3","70.7","98","30.01","183","0","0","0.00","0.00"
"00:49:57","71.3","70.7","98","30.01","183","0","0","0.00","0.00"
"00:54:56","71.3","70.7","98","30.01","183","0","0","0.00","0.00"
"00:59:59","71.3","70.7","98","30.01","183","0","0","0.00","0.00"
"01:04:58","71.3","70.7","98","30.00","183","0","0","0.00","0.00"
"01:09:57","71.3","70.7","98","30.00","183","0","0","0.00","0.00"
"01:14:57","71.3","70.7","98","30.00","183","0","0","0.00","0.00"
"01:19:56","71.3","70.7","98","30.00","183","0","0","0.00","0.00"
"01:24:59","71.2","70.6","98","30.00","183","0","0","0.00","0.00"
"01:29:58","71.1","70.5","98","30.00","183","0","0","0.00","0.00"
"01:34:57","71.1","70.5","98","29.99","183","0","0","0.00","0.00"
"01:39:56","71.1","70.5","98","29.99","183","0","0","0.00","0.00"
"01:44:59","71.1","70.5","98","29.99","183","0","0","0.00","0.00"
"01:49:58","71.1","70.5","98","29.98","183","0","0","0.00","0.00"
"01:54:57","71.2","70.6","98","29.98","183","0","0","0.00","0.00"
"01:59:56","71.2","70.6","98","29.98","183","0","0","0.00","0.00"
"02:04:58","71.2","70.6","98","29.98","183","0","0","0.00","0.00"
"02:09:58","71.2","70.6","98","29.98","183","0","0","0.00","0.00"
"02:14:58","71.1","70.5","98","29.98","183","0","0","0.00","0.00"
"02:19:57","71.1","70.5","98","29.98","183","0","0","0.00","0.00"
"02:24:56","71.1","70.5","98","29.98","183","0","0","0.00","0.00"
"02:29:58","71.1","70.5","98","29.98","183","0","0","0.00","0.00"
"02:34:57","71.1","70.5","98","29.98","183","0","0","0.00","0.00"
"02:39:57","71","70.4","98","29.98","183","0.1","2","0.00","0.00"
"02:44:56","71","70.4","98","29.98","183","0.2","2.3","0.00","0.00"
"02:49:59","71","70.4","98","29.98","183","0","1","0.00","0.00"
"02:54:57","71","70.4","98","29.98","183","0.1","1.2","0.00","0.00"
"02:59:56","71","70.4","98","29.98","183","0","0","0.00","0.00"
"03:04:59","71","70.4","98","29.98","183","0","1","0.00","0.00"
"03:09:58","71","70.4","98","29.98","183","0.1","1.2","0.00","0.00"
"03:14:58","71.1","70.5","98","29.98","183","0.1","1.2","0.00","0.00"
"03:19:57","71.1","70.5","98","29.98","183","0","0","0.00","0.00"
"03:24:56","71.1","70.5","98","29.98","183","0","0","0.00","0.00"
"03:29:59","71.1","70.5","98","29.98","183","0","0","0.00","0.00"
"03:34:58","71.1","70.5","98","29.98","183","0","0","0.00","0.00"
"03:39:58","71.1","70.5","98","29.98","183","0","0","0.00","0.00"
"03:44:56","71.1","70.5","98","29.98","183","0","0","0.00","0.00"
"03:49:59","71.1","70.5","98","29.98","183","0","0","0.00","0.00"
"03:54:58","71.1","70.5","98","29.98","183","0","0","0.00","0.00"
"03:59:56","71.1","70.5","98","29.98","183","0","0","0.00","0.00"
"04:04:59","71.1","70.5","98","29.98","183","0","0","0.00","0.00"
"04:09:58","71.2","70.6","98","29.98","183","0","0","0.00","0.00"
"04:14:58","71.2","70.6","98","29.98","183","0.2","2.3","0.00","0.00"
"04:19:57","71.2","70.6","98","29.98","183","0","1.2","0.00","0.00"
"04:24:56","71.2","70.6","98","29.98","183","0","0","0.00","0.00"
"04:29:58","71.3","70.7","98","29.98","183","0.1","1.2","0.00","0.00"
"04:34:57","71.3","70.7","98","29.98","183","0","1","0.00","0.00"
"04:39:57","71.3","70.7","98","29.98","183","0.2","1.2","0.00","0.00"
"04:44:56","71.2","70.6","98","29.98","183","0","1.2","0.00","0.00"
"04:49:59","71.2","70.6","98","29.98","183","0","0","0.00","0.00"
"04:54:58","71.1","70.5","98","29.98","183","0","0","0.00","0.00"
"04:59:57","71.1","70.5","98","29.98","183","0","0","0.00","0.00"
"05:04:59","71.1","70.5","98","29.98","183","0","0","0.00","0.00"
"05:09:58","71.1","70.5","98","29.98","183","0","1","0.00","0.00"
"05:14:58","71.1","70.5","98","29.98","183","0","1.2","0.00","0.00"
"05:19:57","71.1","70.5","98","29.98","183","0","0","0.00","0.00"
"05:24:59","71.1","70.5","98","29.98","183","0","0","0.00","0.00"
"05:29:58","71","70.4","98","29.98","183","0","0","0.00","0.00"
"05:34:57","71","70.4","98","29.97","183","0","0","0.00","0.00"
"05:39:57","71","70.4","98","29.97","183","0","0","0.00","0.00"
"05:44:56","71","70.4","98","29.97","183","0","0","0.00","0.00"
"05:49:58","71.1","70.5","98","29.97","183","0","0","0.00","0.00"
"05:54:57","71.2","70.8","98.6","29.97","183","0","0","0.00","0.00"
"05:59:56","71.2","70.8","98.6","29.97","183","0","1.2","0.00","0.00"
"06:04:58","71.3","71","99","29.97","183","0.1","1.2","0.00","0.00"
"06:09:59","71.4","71.1","99","29.97","183","0","1.2","0.00","0.00"
"06:14:59","71.4","70.9","98.3","29.98","183","0","1.2","0.00","0.00"
"06:19:57","71.5","70.9","98","29.98","184","0.3","4","0.00","0.00"
"06:24:56","71.5","70.9","98","29.98","264","2.3","5","0.00","0.00"
"06:29:59","71.5","70.9","98","29.98","319","1.2","6","0.00","0.00"
"06:34:58","71.5","70.9","98","29.98","340","1","4","0.00","0.00"
"06:39:58","71.5","70.9","98","29.98","337","0.9","4","0.00","0.00"
"06:44:56","71.5","70.9","98","29.99","337","0.4","3","0.00","0.00"
"06:49:56","71.5","70.9","98","29.99","337","1","3.5","0.00","0.00"
"06:54:58","71.5","70.9","98","29.99","336","0.9","4","0.00","0.00"
"06:59:57","71.5","70.9","98","29.99","336","0.4","2.3","0.00","0.00"
"07:04:59","71.5","70.9","98","29.99","337","1.1","5","0.00","0.00"
"07:09:57","71.4","70.8","98","29.99","329","2.1","6","0.00","0.00"
"07:14:57","71.2","70.5","97.8","30.00","337","2.4","9.2","0.00","0.00"
"07:19:59","70.7","69.8","97","30.00","339","4","9.2","0.00","0.00"
"07:24:57","70.3","69.4","97","30.00","330","2.2","6.9","0.00","0.00"
"07:29:59","70","69.1","96.8","30.00","349","2.4","7","0.00","0.00"
"07:34:57","69.8","68.9","97","30.00","344","1.9","5.8","0.00","0.00"
"07:39:57","69.7","68.8","97","30.00","353","1.6","5","0.00","0.00"
"07:44:59","69.6","68.7","97","30.01","339","1.9","7","0.00","0.00"
"07:49:57","69.6","68.6","96.6","30.01","350","2.9","13","0.00","0.00"
"07:54:56","69.6","68.4","96","30.01","356","2.4","6","0.00","0.00"
"07:59:59","69.5","68.3","96","30.01","359","1.2","4","0.00","0.00"
"08:04:57","69.5","68.3","96","30.00","36","0.9","3","0.00","0.00"
"08:09:59","69.5","68.3","96","30.00","20","1.8","5","0.00","0.00"
"08:14:59","69.5","68.3","96","30.00","353","1.6","5","0.00","0.00"
"08:19:57","69.4","68.2","96","30.00","343","1.4","4.6","0.00","0.00"
"08:24:56","69.6","68.4","96","30.00","344","1","4","0.00","0.00"
"08:29:58","69.6","68.5","96.2","30.00","344","1.9","4","0.00","0.00"
"08:34:56","69.7","68.6","96.2","30.00","342","1.7","4","0.01","0.01"
"08:39:56","69.8","68.8","96.8","30.00","342","0.8","3.5","0.01","0.01"
"08:44:58","69.9","69","97","30.00","342","1","3","0.01","0.01"
"08:49:56","70.1","69.2","97","30.00","342","0.2","2.3","0.01","0.01"
"08:54:59","70.4","69.5","97","30.00","342","0.2","2.3","0.01","0.01"
"08:59:57","70.6","69.7","97","30.00","342","0.1","2.3","0.01","0.01"
"09:04:59","70.8","69.8","96.7","30.00","342","0.8","3.5","0.01","0.01"
"09:09:58","71","70","96.8","30.00","340","1.1","3.5","0.01","0.01"
"09:14:58","71.3","70.3","96.7","30.00","340","0.9","4","0.01","0.01"
"09:19:57","71.4","70.2","96","30.00","340","0.8","3.5","0.01","0.01"
"09:24:59","71.6","70.4","96","30.00","340","0.7","4","0.01","0.01"
"09:29:57","71.7","70.4","95.8","30.00","334","1.3","4","0.01","0.01"
"09:34:59","71.8","70.6","95.7","30.00","324","1.2","5","0.01","0.01"
"09:39:58","72.1","70.6","95.1","30.00","332","2.1","4.6","0.01","0.00"
"09:44:56","72.3","70.8","95","30.00","334","1.8","4","0.01","0.00"
"09:49:59","72.4","70.8","94.5","30.00","327","1.6","4","0.01","0.00"
"09:54:57","72.8","71.3","94.7","30.00","311","1.6","5","0.01","0.00"
"09:59:59","73.1","71.2","93.6","30.00","298","2.2","7","0.01","0.00"
"10:04:57","73.1","70.9","92.8","30.00","328","1.8","6","0.01","0.00"
"10:09:56","73.4","71.1","92.5","30.00","344","3.1","6","0.01","0.00"
"10:14:59","74","71.3","91.3","30.00","325","3.1","8.1","0.01","0.00"
"10:19:57","74.6","71.2","89.2","30.00","337","3.6","11.5","0.01","0.00"
"10:24:59","75.3","71.7","88.8","30.00","311","2.2","6","0.01","0.00"
"10:29:57","75.9","71.8","87.1","30.00","354","1.8","4","0.01","0.00"
"10:34:56","76.5","71.5","84.6","30.00","337","3.7","9","0.01","0.00"
"10:39:56","76.7","70.8","82.3","30.00","338","2.8","9.2","0.01","0.00"
"10:44:58","76.7","69.7","79.2","30.00","337","3.7","12","0.01","0.00"
"10:49:59","76.9","69.7","78.5","30.00","338","4.1","11","0.01","0.00"
"10:54:58","77.2","69.7","77.8","30.00","359","5","11.5","0.01","0.00"
"10:59:56","77.4","70","78.2","30.00","315","3","6.9","0.01","0.00"
"11:04:57","77.8","70.6","78.4","30.00","339","2.3","7","0.01","0.00"
"11:09:56","78.1","70","76.2","30.00","337","4.4","12","0.01","0.00"
"11:14:59","78.4","70.2","75.9","30.00","338","4","10.4","0.01","0.00"
"11:19:57","78.7","69.7","74.2","30.00","317","3.7","9","0.01","0.00"
"11:24:57","79.1","69.4","72.4","30.00","281","4","9.2","0.01","0.00"
"11:29:56","79.2","68.3","69.4","30.00","318","5.1","11.5","0.01","0.00"
"11:34:59","79.4","68.9","70.4","30.00","300","3.2","9.2","0.01","0.00"
"11:39:56","79.7","68.6","68.9","30.00","319","3.9","12","0.01","0.00"
"11:44:59","79.6","67.3","66.2","30.00","328","4.4","12","0.01","0.00"
"11:49:59","79.3","67.6","67.5","30.00","342","4.6","14","0.01","0.00"
"11:54:58","79","67.7","68.3","30.00","284","4.4","11.5","0.01","0.00"
"11:59:57","79.2","68.1","68.8","30.00","309","3","9.2","0.01","0.00"
"12:04:56","79.7","68.5","68.7","30.00","343","3.7","12","0.01","0.00"
"12:09:57","79.9","67.9","66.9","30.00","318","4.5","12","0.01","0.00"
"12:14:58","79.8","67.4","66.1","30.00","344","3.9","12","0.01","0.00"
"12:19:57","79.9","67.4","65.7","30.00","341","4.7","13","0.01","0.00"
"12:24:58","80.1","67.3","65","30.00","340","5.2","12","0.01","0.00"
"12:29:57","80","67.1","64.7","30.00","334","4.2","11.5","0.01","0.00"
"12:34:57","80.1","67.6","65.7","30.00","343","2.9","9.2","0.01","0.00"
"12:39:57","80.3","67.4","64.9","30.00","356","3.1","11","0.01","0.00"
"12:44:57","80.6","67.8","65.2","30.00","342","3.8","7","0.01","0.00"
"12:49:57","80.9","67","62.8","29.99","320","2.9","9.2","0.01","0.00"
"12:54:56","80.8","67.5","64.1","29.99","326","3.5","10.4","0.01","0.00"
"12:59:59","81.1","68.2","65","29.99","266","3.9","7","0.01","0.00"
"13:04:58","81.4","67.7","63.1","29.99","248","2.9","10","0.01","0.00"
"13:09:59","81.6","66.6","60.5","29.99","308","3.3","10.4","0.01","0.00"
"13:14:56","81.6","64.7","56.6","29.99","294","4.2","10.4","0.01","0.00"
"13:19:59","81.6","65.3","57.8","29.99","289","3.3","7","0.01","0.00"
"13:24:59","81.9","65.1","56.8","29.99","328","2.3","5.8","0.01","0.00"
"13:29:58","82.4","64.3","54.5","29.99","348","2.1","6","0.01","0.00"
"13:34:58","82.8","64.6","54.4","29.98","261","1.9","6","0.01","0.00"
"13:39:59","83","64.5","53.8","29.98","300","1.6","5","0.01","0.00"
"13:44:58","83.2","65.5","55.4","29.98","300","2.5","6","0.01","0.00"
"13:49:58","83.1","66","56.4","29.98","235","2.6","7","0.01","0.00"
"13:54:58","83.1","65.8","56","29.98","228","2.6","6","0.01","0.00"
"13:59:57","83.2","66","56.3","29.98","295","2.3","6","0.01","0.00"
"14:04:56","83.2","66.1","56.4","29.97","315","3.4","7","0.01","0.00"
"14:09:56","83.3","66.2","56.5","29.97","333","4.3","9.2","0.01","0.00"
"14:14:58","83.2","66.1","56.4","29.97","283","2.8","9.2","0.01","0.00"
"14:19:57","83.6","64.8","53.4","29.97","244","2.4","7","0.01","0.00"
"14:24:57","84","61.8","47.4","29.97","290","4.1","10.4","0.01","0.00"
"14:29:56","83.9","63","49.5","29.97","329","3.9","12","0.01","0.00"
"14:34:56","84","63.9","50.9","29.96","342","2.6","10.4","0.01","0.00"
"14:39:57","84.4","64.6","51.7","29.96","338","2.8","9.2","0.01","0.00"
"14:44:56","84.6","64","50.2","29.96","342","3.5","7","0.01","0.00"
"14:49:56","84.4","65.3","52.8","29.96","346","3.2","11","0.01","0.00"
"14:54:56","84.3","65.1","52.6","29.96","333","4","12","0.01","0.00"
"14:59:59","84.3","64.8","52.1","29.96","292","2.4","8.1","0.01","0.00"
"15:04:58","84.4","65.6","53.4","29.96","334","3","7","0.01","0.00"
"15:09:58","84.5","64.4","51","29.96","337","3.8","10.4","0.01","0.00"
"15:14:59","84.4","65.6","53.5","29.96","337","2.4","9.2","0.01","0.00"
"15:19:59","84.8","66.3","54.1","29.96","328","3.5","9.2","0.01","0.00"
"15:24:58","84.9","66.1","53.4","29.96","323","3.1","9.2","0.01","0.00"
"15:29:57","85.2","66.7","54.1","29.96","326","2.3","9.2","0.01","0.00"
"15:34:57","85.4","65.5","51.6","29.95","300","3.2","10.4","0.01","0.00"
"15:39:58","85.2","65.6","52","29.95","284","3.7","10.4","0.01","0.00"
"15:44:57","85.3","65.5","51.8","29.95","343","2.5","10.4","0.01","0.00"
"15:49:56","85.3","65.4","51.5","29.95","321","3.6","9.2","0.01","0.00"
"15:54:56","85.3","65.2","51.2","29.95","334","3.6","9.2","0.01","0.00"
"15:59:56","85.5","66.1","52.4","29.95","335","2.9","7","0.01","0.00"
"16:04:59","85.7","66.5","52.9","29.95","271","2.4","9.2","0.01","0.00"
"16:09:59","85.8","66.1","52.1","29.95","328","2.9","9.2","0.01","0.00"
"16:14:56","85.8","65.7","51.2","29.95","312","1.4","5","0.01","0.00"
"16:19:56","86.1","67.5","53.9","29.94","331","1.4","6","0.01","0.00"
"16:24:56","86.5","66.1","50.7","29.94","320","2.8","5.8","0.01","0.00"
"16:29:59","86.5","66.1","50.8","29.94","316","2.1","8","0.01","0.00"
"16:34:59","86.5","66.7","51.8","29.94","333","2.2","8.1","0.01","0.00"
"16:39:56","86.6","66.5","51.5","29.94","324","3.1","7","0.01","0.00"
"16:44:56","86.4","66.6","51.8","29.94","344","2.4","6","0.01","0.00"
"16:49:59","86.5","67.1","52.4","29.94","343","1.5","5.8","0.01","0.00"
"16:54:59","86.7","66.6","51.3","29.94","337","2.8","10","0.01","0.00"
"16:59:59","86.4","66.4","51.6","29.94","326","2.7","10.4","0.01","0.00"
"17:04:58","86.4","66.9","52.4","29.94","324","1.7","6","0.01","0.00"
"17:09:58","86.4","66.9","52.5","29.94","336","1.8","5","0.01","0.00"
"17:14:59","86.3","66.6","52.1","29.94","335","1.7","4","0.01","0.00"
"17:19:59","86.3","67.3","53.3","29.93","336","1.9","7","0.01","0.00"
"17:24:58","86.3","67.1","52.8","29.93","296","2.2","6","0.01","0.00"
"17:29:58","86.1","66.9","52.9","29.93","352","2.1","7","0.01","0.00"
"17:34:57","86.1","66.4","52","29.93","346","2.9","6.9","0.01","0.00"
"17:39:59","86","67.3","53.9","29.93","341","2.1","5","0.01","0.00"
"17:44:58","86.1","67.4","53.8","29.94","344","1.9","4","0.01","0.00"
"17:49:58","86.1","67.2","53.5","29.94","343","1.6","5","0.01","0.00"
"17:54:58","86.1","66.9","52.9","29.94","327","2","4","0.01","0.00"
"17:59:58","86","67.4","53.9","29.94","331","1.8","4","0.01","0.00"
"18:04:57","86","67.1","53.3","29.93","342","1.3","4","0.01","0.00"
"18:09:57","86","67.1","53.4","29.93","341","0.9","3.5","0.01","0.00"
"18:14:58","86.2","67.3","53.5","29.93","341","1.7","5","0.01","0.00"
"18:19:58","85.9","67.9","55.2","29.93","263","1.8","4.6","0.01","0.00"
"18:24:57","85.4","67.3","55","29.93","252","2.2","6","0.01","0.00"
"18:29:57","84.9","67.4","55.9","29.93","301","1.5","4","0.01","0.00"
"18:34:56","84.5","67.7","57.1","29.93","305","1.4","4","0.01","0.00"
"18:39:57","84.3","67.3","56.9","29.93","301","1.4","4","0.01","0.00"
"18:44:57","84.2","67.1","56.7","29.93","298","0.8","3.5","0.01","0.00"
"18:49:57","84.1","67.9","58.4","29.93","290","0.7","2.3","0.01","0.00"
"18:54:57","83.9","67.3","57.6","29.93","290","0.8","3.5","0.01","0.00"
"18:59:57","83.6","67.2","57.9","29.93","290","1.2","3.5","0.01","0.00"
"19:04:56","83.3","67.2","58.5","29.92","290","0.9","3.5","0.01","0.00"
"19:09:57","82.9","68","60.8","29.92","336","0.6","2.3","0.01","0.00"
"19:14:59","82.5","67.1","59.8","29.92","30","0.3","2.3","0.01","0.00"
"19:19:59","82.3","67","59.9","29.92","80","0.2","1.2","0.01","0.00"
"19:24:59","82.2","67.9","62.2","29.92","80","0","2","0.01","0.00"
"19:29:59","81.8","69.7","67","29.93","80","0.2","2.3","0.01","0.00"
"19:34:59","81.1","69.9","68.8","29.93","105","0","1.2","0.01","0.00"
"19:39:56","80.4","69.8","70.2","29.93","105","0.2","1.2","0.01","0.00"
"19:44:56","79.6","69.5","71.2","29.94","105","0","1.2","0.01","0.00"
"19:49:40","79","69.2","71.8","29.94","123","0","0","0.01","0.00"
"19:54:59","78.3","68.9","72.9","29.94","123","0","0","0.01","0.00"
"19:59:58","77.8","68.9","74.1","29.94","123","0","0","0.01","0.00"
"20:04:57","77.3","68.9","75.4","29.94","123","0","0","0.01","0.00"
"20:09:56","76.8","69.3","77.6","29.94","123","0","0","0.01","0.00"
"20:14:57","76.3","69.3","78.9","29.95","123","0","0","0.01","0.00"
"20:19:56","75.9","68.9","79","29.95","171","0","1","0.01","0.00"
"20:24:59","75.3","68.7","79.9","29.95","171","0","1.2","0.01","0.00"
"20:29:59","74.9","68.2","79.7","29.95","171","0","0","0.01","0.00"
"20:34:58","74.6","68","80","29.95","171","0","0","0.01","0.00"
"20:39:59","74.4","68.1","80.8","29.95","171","0","0","0.01","0.00"
"20:44:57","74.2","68.6","82.6","29.95","171","0","0","0.01","0.00"
"20:49:56","73.9","68.4","83.1","29.95","171","0.1","1.2","0.01","0.00"
"20:54:59","73.7","68.6","84","29.95","171","0","1.2","0.01","0.00"
"20:59:58","73.8","68.8","84.4","29.96","171","0","0","0.01","0.00"
"21:04:56","73.9","69.1","85","29.96","171","0","0","0.01","0.00"
"21:09:59","73.7","69","85.2","29.96","171","0","0","0.01","0.00"
"21:14:59","73.8","69.8","87.5","29.97","170","1.8","5","0.01","0.00"
"21:19:58","74","69.5","86","29.97","287","1","5","0.01","0.00"
"21:24:57","74.2","69.1","84","29.97","313","1.4","4.6","0.01","0.00"
"21:29:56","74.5","68.8","82.5","29.97","313","1.3","3.5","0.01","0.00"
"21:34:58","74.7","68.9","82.1","29.97","313","0.5","3","0.01","0.00"
"21:39:58","74.9","69","82","29.97","317","0.9","4","0.01","0.00"
"21:44:57","74.9","69","81.9","29.98","318","0.4","2.3","0.01","0.00"
"21:49:52","74.9","68.9","81.6","29.98","287","1.2","7","0.01","0.00"
"21:54:59","74.9","67.9","78.9","29.98","326","2.2","6.9","0.01","0.00"
"21:59:57","75.1","67.8","78","29.98","322","1.2","4","0.01","0.00"
"22:04:59","75.1","67.5","77.3","29.98","326","2","9.2","0.01","0.00"
"22:09:58","75.2","67.1","76.1","29.98","344","1.9","7","0.01","0.00"
"22:14:58","75.3","66.8","75","29.98","325","3.1","6.9","0.01","0.00"
"22:19:57","75.3","66.5","74.2","29.98","343","1.6","6","0.01","0.00"
"22:24:35","75.3","66.5","74.2","29.98","310","1.3","9.2","0.01","0.00"
"22:29:58","75.2","66.4","74.2","29.98","309","0.5","2.3","0.01","0.00"
"22:34:57","75","66","73.8","29.98","321","1.1","4","0.01","0.00"
"22:39:57","74.8","65.7","73.3","29.98","314","1.3","4","0.01","0.00"
"22:44:59","74.6","65.4","73","29.98","309","0.6","3.5","0.01","0.00"
"22:49:58","74.5","65.6","73.8","29.98","309","0.6","4","0.01","0.00"
"22:54:57","74.4","65.3","73.3","29.98","310","1.4","4","0.01","0.00"
"22:59:59","74.3","65.4","73.8","29.98","311","1","3.5","0.01","0.00"
"23:04:57","74.2","65.1","73.2","29.98","311","1.1","4","0.01","0.00"
"23:09:56","74.1","65.2","73.9","29.98","310","0.6","3.5","0.01","0.00"
"23:14:57","74","65.2","74","29.99","310","0.5","3.5","0.01","0.00"
"23:19:59","73.9","65.2","74.2","29.99","311","0.4","2.3","0.01","0.00"
"23:24:58","73.8","65.2","74.5","29.99","311","0","1.2","0.01","0.00"
"23:29:57","73.7","65.2","74.9","29.99","310","0.4","3","0.01","0.00"
"23:34:56","73.5","64.7","73.9","29.98","310","1.6","4","0.01","0.00"
"23:39:56","73.4","64.4","73.5","29.98","288","1","4","0.01","0.00"
"23:44:59","73.3","64.1","73","29.98","301","0.9","4","0.01","0.00"
"23:49:57","73.2","63.8","72.5","29.98","329","1.2","5","0.01","0.00"
"23:54:56","73.1","63.7","72.7","29.98","340","0.3","2","0.01","0.00"
